Погода в Бентоте

Шри-Ланка     6˚25′19″N   79˚59′47″E
темп.,
°C
ветер,
м/с
пор.,
м/с
влажн.,
%
обл.,
%
осадки,
мм/ч
давл.,
гПа
погр.,
м
17 января, вс
вс1723:30+24˚в228699 0.9 101085
02:30+24˚св228898 0.0 100888
05:30+24˚св228993 0.0 100892
08:30+26˚ссв348285 0.0 1010274
11:30+29˚сз346582 0.0 1011869
14:30+28˚з447491 0.1 1008434
17:30+26˚зюз238492 2.0 1009278
20:30+25˚ююз1286100 4.3 1011128
18 января, пн
пн1823:30+25˚юв3489100 4.6 1011174
02:30+24˚всв229193 0.0 1009118
05:30+23˚ссв239297 0.1 1009115
08:30+25˚ссв2387100 0.0 1011197
11:30+29˚зсз226788 0.0 1011698
14:30+28˚з557355 0.1 1008462
17:30+27˚ссз358567 2.9 1008277
20:30+26˚св1286100 3.1 101188
19 января, вт
вт1923:30+25˚св2291100 3.2 101194
02:30+24˚ссв1191100 0.0 100973
05:30+23˚с459589 0.0 1009195
08:30+24˚с349091 0.0 1011230
11:30+28˚сз337178 0.7 1011586
14:30+28˚сз677193 0.1 1008728
17:30+28˚с587032 0.0 1008596
20:30+24˚с611780 0.0 1011443
20 января, ср
ср2023:30+23˚с46830 0.0 1011225
02:30+23˚с338544 0.0 1009135
05:30+22˚ссв338833 0.0 1010119
08:30+25˚ссв347842 0.0 1012270
11:30+30˚ссз346346 0.0 1011813
14:30+29˚сз667246 0.1 1008678
17:30+27˚сз7108743 4.9 1009359
20:30+26˚ссв3488100 2.3 1011181
21 января, чт
чт2123:30+24˚св229495 2.4 1011117
02:30+24˚вюв2290100 0.0 1009150
05:30+24˚св2291100 0.4 1010117
08:30+26˚св118493 0.0 1012196
11:30+29˚зсз227084 0.0 1011628
14:30+28˚з447660 0.5 1008485
17:30+27˚зсз238081 1.3 1009535
20:30+26˚юз018383 0.2 1011290